[[{"header":{"parameterUnit":"m.s-1","parameterCategory":1,"la1":30.2991,"la2":30.254,"lo1":-89.0895,"lo2":-89.0444,"dy":0.0017,"dx":0.0017,"nx":28,"ny":28,"refTime":"2024-05-07T03:00:00:Z","depth":0,"parameterNumber":2,"parameterNumberName":"U-component_of_WINDS"},"data":[0,0,0,0,0,0,0,0,0,0,0,0,0,0,0,0,0,0,0,0,0,0,0,0,0,0,0,0,0,0,0,0,0,0,0,0,0,0,0,0,0,0,0,0,0,0,0,0,0,0,0,0,0,0,0,0,0,0,-0.8887,-0.8886,0,-0.8858,-0.8857,-0.8857,-0.8845,-0.8845,-0.8845,-0.8845,-0.8813,-0.8813,-0.8812,0,0,0,0,0,0,0,0,0,0,0,0,0,-0.893,-0.8929,-0.8887,-0.8886,-0.8886,-0.8858,-0.8857,-0.8857,-0.8845,-0.8845,-0.8845,-0.8845,-0.8814,-0.8813,-0.8812,0,0,0,0,0,0,0,0,0,0,0,0,0,-0.8907,-0.8929,-0.8887,-0.8876,-0.8875,-0.8858,-0.8857,-0.8857,-0.8845,-0.8845,-0.8845,-0.8845,-0.8814,-0.8813,-0.8812,-0.8801,0,0,-0.8807,-0.8807,0,0,0,0,0,0,0,0,-0.8908,-0.8906,-0.8878,-0.8877,-0.8876,-0.8855,-0.8861,-0.8838,-0.8845,-0.8856,-0.8845,-0.8845,-0.8827,-0.8825,-0.8819,-0.88,-0.8799,-0.8807,-0.8806,-0.8806,-0.8806,0,0,0,0,0,0,0,-0.891,-0.8907,-0.8875,-0.8878,-0.8876,-0.8873,-0.887,-0.8857,-0.8841,-0.8855,-0.8854,-0.8851,-0.8826,-0.882,-0.8818,-0.8798,-0.8807,-0.8806,-0.8805,-0.8805,-0.877,-0.877,0,0,0,0,0,0,-0.8914,-0.8908,-0.8876,-0.8874,-0.8893,-0.8872,-0.8869,-0.8862,-0.8842,-0.8839,-0.8851,-0.8851,-0.8823,-0.882,-0.8817,-0.8804,-0.8806,-0.8805,-0.8804,-0.877,-0.877,-0.877,0,0,0,0,0,0,-0.8915,-0.8911,-0.8877,-0.8891,-0.8886,-0.8871,-0.8863,-0.8861,-0.8855,-0.8839,-0.8836,-0.8848,-0.8823,-0.8819,-0.8806,-0.8803,-0.8804,-0.8803,-0.877,-0.877,-0.877,-0.8778,0,0,0,0,0,0,-0.8916,-0.8911,-0.8908,-0.8891,-0.8886,-0.8867,-0.8863,-0.886,-0.8853,-0.8852,-0.8835,-0.8832,-0.8822,-0.8808,-0.8804,-0.8801,-0.8802,-0.877,-0.877,-0.877,-0.8778,-0.8778,-0.8779,0,0,0,0,0,-0.8917,-0.8911,-0.8907,-0.8904,-0.8881,-0.8867,-0.8864,-0.8853,-0.8853,-0.8849,-0.8838,-0.8832,-0.8804,-0.8806,-0.8803,-0.8799,-0.877,-0.877,-0.877,-0.8778,-0.8778,-0.8779,0,0,0,0,0,0,-0.8926,-0.8908,-0.8904,-0.8892,-0.8881,-0.8865,-0.8859,-0.8854,-0.8842,-0.8842,-0.8829,-0.8825,-0.8813,-0.8805,-0.8808,-0.8788,-0.8787,-0.8785,-0.8794,-0.8794,-0.8795,-0.8797,-0.8801,0,0,0,0,0,-0.8927,-0.8918,-0.8902,-0.8893,-0.8887,-0.8874,-0.8868,-0.8861,-0.8849,-0.8844,-0.8832,-0.882,-0.8808,-0.8801,-0.8789,-0.8777,-0.8773,-0.8772,-0.8773,-0.8773,-0.8772,-0.8765,-0.8765,-0.8769,-0.8769,-0.8769,0,0,-0.8928,-0.8917,-0.8912,-0.8894,-0.8885,-0.8875,-0.887,-0.886,-0.8852,-0.8842,-0.8829,-0.882,-0.8806,-0.8793,-0.8787,-0.8785,-0.877,-0.8773,-0.8773,-0.8772,-0.8765,-0.8764,-0.8764,-0.8768,-0.8768,-0.8768,0,0,-0.8925,-0.8916,-0.8907,-0.8898,-0.8884,-0.8876,-0.8874,-0.8858,-0.8852,-0.8839,-0.8831,-0.8822,-0.8802,-0.8792,-0.8784,-0.8778,-0.8773,-0.8775,-0.8776,-0.8769,-0.8769,-0.8769,-0.8767,-0.8766,-0.8774,-0.8774,-0.8774,0,-0.8928,-0.8913,-0.8903,-0.8893,-0.8886,-0.8877,-0.8868,-0.886,-0.8842,-0.8837,-0.8836,-0.8812,-0.8801,-0.8786,-0.8785,-0.8779,-0.8776,-0.8777,-0.877,-0.877,-0.8769,-0.8767,-0.8766,-0.8775,-0.8774,-0.8774,-0.8774,0,-0.8918,-0.8907,-0.8902,-0.8887,-0.8878,-0.8869,-0.8857,-0.885,-0.8844,-0.8836,-0.8823,-0.881,-0.8796,-0.8792,-0.8786,-0.8776,-0.8776,-0.8773,-0.8771,-0.8769,-0.8767,-0.8766,-0.8775,-0.8775,-0.8775,-0.8775,0,0,-0.8919,-0.8899,-0.8897,-0.889,-0.8874,-0.8866,-0.8856,-0.8843,-0.8837,-0.8826,-0.8817,-0.8801,-0.8798,-0.8789,-0.8782,-0.8776,-0.8772,-0.8774,-0.8773,-0.8774,-0.8761,-0.8764,-0.8763,-0.8769,-0.8768,-0.8768,-0.8762,0,-0.8914,-0.8896,-0.8887,-0.8874,-0.8864,-0.8856,-0.8847,-0.8837,-0.8829,-0.8819,-0.881,-0.8799,-0.8796,-0.8791,-0.8784,-0.8774,-0.877,-0.8775,-0.876,-0.876,-0.8764,-0.8762,-0.8764,-0.8759,-0.8761,-0.8761,-0.8761,0,-0.8905,-0.8895,-0.888,-0.8866,-0.8862,-0.8855,-0.8842,-0.8833,-0.8821,-0.8815,-0.8806,-0.8799,-0.8788,-0.8787,-0.8772,-0.8776,-0.8769,-0.8763,-0.8763,-0.8761,-0.876,-0.876,-0.8757,-0.8757,-0.876,-0.876,-0.876,0,-0.8908,-0.889,-0.8879,-0.8873,-0.8857,-0.8852,-0.8844,-0.8832,-0.8825,-0.8814,-0.8809,-0.8797,-0.879,-0.878,-0.877,-0.877,-0.8755,-0.8754,-0.875,-0.875,-0.8747,-0.8747,-0.8744,-0.8743,-0.8743,-0.8743,-0.8743,0,-0.8903,-0.8894,-0.888,-0.8874,-0.8864,-0.8854,-0.8844,-0.8836,-0.8826,-0.8817,-0.8809,-0.8801,-0.8788,-0.8778,-0.8769,-0.8758,-0.8755,-0.875,-0.8748,-0.8751,-0.8751,-0.8746,-0.8746,-0.8743,-0.8743,-0.8743,-0.8743,0,-0.8904,-0.8894,-0.8882,-0.8867,-0.8863,-0.8857,-0.8844,-0.8837,-0.8829,-0.8818,-0.8815,-0.8802,-0.879,-0.8779,-0.8763,-0.8757,-0.8746,-0.8743,-0.875,-0.8749,-0.8746,-0.8747,-0.8739,-0.8737,-0.8738,-0.8738,-0.8738,0,-0.8901,-0.8895,-0.888,-0.8874,-0.8867,-0.8857,-0.885,-0.884,-0.8833,-0.8818,-0.8813,-0.8801,-0.8791,-0.8772,-0.8761,-0.8748,-0.8745,-0.8743,-0.8743,-0.8746,-0.8745,-0.8746,-0.8745,-0.8744,-0.8744,-0.8744,-0.8744,0,-0.8898,-0.8894,-0.8884,-0.8873,-0.8865,-0.8855,-0.8845,-0.8841,-0.8828,-0.8821,-0.8809,-0.8801,-0.8785,-0.8773,-0.876,-0.8751,-0.8745,-0.8744,-0.8742,-0.8745,-0.875,-0.8747,-0.8751,-0.8744,-0.8744,-0.8744,-0.8744,-0.8744,-0.8897,-0.8891,-0.888,-0.8869,-0.8861,-0.8852,-0.8845,-0.8836,-0.8826,-0.8813,-0.8808,-0.8796,-0.8784,-0.8765,-0.8757,-0.8748,-0.8746,-0.8744,-0.8743,-0.8743,-0.8744,-0.8751,-0.8745,-0.8745,-0.8745,-0.8745,-0.8745,0,-0.8893,-0.8886,-0.8876,-0.8863,-0.8855,-0.8851,-0.884,-0.8833,-0.8823,-0.8813,-0.8803,-0.879,-0.8778,-0.8766,-0.8754,-0.8748,-0.8745,-0.8745,-0.8745,-0.8743,-0.8746,-0.8748,-0.8748,-0.8748,-0.8748,-0.8748,-0.8748,-0.8748,-0.889,-0.888,-0.8874,-0.886,-0.8852,-0.8841,-0.8835,-0.8827,-0.8818,-0.8804,-0.8795,-0.8787,-0.8776,-0.8763,-0.8752,-0.8749,-0.8744,-0.8745,-0.8741,-0.8743,-0.8743,-0.8743,-0.8745,-0.8745,-0.8745,-0.874,-0.874,-0.874]},{"header":{"parameterUnit":"m.s-1","parameterCategory":1,"la1":30.2991,"la2":30.254,"lo1":-89.0895,"lo2":-89.0444,"dy":0.0017,"dx":0.0017,"nx":28,"ny":28,"refTime":"2024-05-07T03:00:00:Z","depth":0,"parameterNumber":3,"parameterNumberName":"V-component_of_WINDS"},"data":[0,0,0,0,0,0,0,0,0,0,0,0,0,0,0,0,0,0,0,0,0,0,0,0,0,0,0,0,0,0,0,0,0,0,0,0,0,0,0,0,0,0,0,0,0,0,0,0,0,0,0,0,0,0,0,0,0,0,6.7349,6.735,0,6.7477,6.7478,6.748,6.745,6.7447,6.7445,6.7443,6.7567,6.7572,6.7578,0,0,0,0,0,0,0,0,0,0,0,0,0,6.7072,6.7077,6.7349,6.735,6.7352,6.7476,6.7478,6.748,6.745,6.7447,6.7444,6.7441,6.7565,6.7572,6.7578,0,0,0,0,0,0,0,0,0,0,0,0,0,6.7195,6.7079,6.7348,6.7352,6.7354,6.7476,6.7478,6.748,6.7451,6.7447,6.7443,6.744,6.7563,6.7571,6.7579,6.7704,0,0,6.7605,6.7608,0,0,0,0,0,0,0,0,6.7188,6.7205,6.735,6.7352,6.7354,6.7444,6.7426,6.7555,6.7452,6.7414,6.7442,6.7438,6.7528,6.7539,6.7571,6.7709,6.7715,6.7605,6.761,6.7614,6.7616,0,0,0,0,0,0,0,6.7179,6.7199,6.7399,6.7352,6.7355,6.7345,6.7359,6.745,6.749,6.7417,6.7415,6.7431,6.7529,6.7563,6.7574,6.7716,6.7605,6.7613,6.7618,6.7621,6.7962,6.7966,0,0,0,0,0,0,6.717,6.7192,6.7395,6.7403,6.7261,6.7353,6.7368,6.7418,6.7489,6.7496,6.7434,6.7429,6.7551,6.7564,6.7578,6.7728,6.7614,6.7622,6.7627,6.7958,6.7963,6.7968,0,0,0,0,0,0,6.7164,6.7188,6.739,6.7297,6.7322,6.7362,6.7418,6.7423,6.7457,6.7502,6.7508,6.7462,6.7548,6.7566,6.7673,6.7732,6.7626,6.7633,6.7954,6.796,6.7965,6.8029,0,0,0,0,0,0,6.7156,6.7187,6.7236,6.7299,6.7327,6.7485,6.7422,6.7428,6.7473,6.7468,6.753,6.7537,6.7547,6.7661,6.7681,6.7741,6.764,6.7948,6.7956,6.7964,6.8022,6.8037,6.8049,0,0,0,0,0,6.7147,6.7247,6.7238,6.7263,6.739,6.7488,6.7504,6.7516,6.7478,6.7526,6.7555,6.7535,6.7722,6.7672,6.7695,6.7758,6.7945,6.7954,6.7963,6.8016,6.8034,6.8049,0,0,0,0,0,0,6.7188,6.7255,6.7246,6.7371,6.7425,6.7483,6.7545,6.7535,6.7598,6.7591,6.76,6.7614,6.7723,6.7751,6.7694,6.7882,6.7828,6.7842,6.786,6.7877,6.7891,6.7881,6.7647,0,0,0,0,0,6.7212,6.7288,6.7342,6.7446,6.7474,6.7505,6.7548,6.7553,6.7608,6.7629,6.7665,6.7717,6.7788,6.7834,6.7902,6.8026,6.8038,6.8081,6.8094,6.8105,6.8117,6.8184,6.8204,6.7998,6.7998,6.7997,0,0,6.7261,6.7307,6.7355,6.7456,6.7498,6.7575,6.7524,6.7607,6.7664,6.7641,6.7745,6.7773,6.7831,6.7948,6.8,6.7974,6.8177,6.8117,6.8126,6.8131,6.8196,6.8215,6.8232,6.8004,6.8003,6.8002,0,0,6.739,6.7434,6.7525,6.7569,6.7634,6.7654,6.7676,6.7737,6.7756,6.786,6.7845,6.7911,6.8032,6.8075,6.8112,6.8258,6.8242,6.828,6.835,6.8416,6.8432,6.8446,6.8498,6.8516,6.8291,6.8291,6.8292,0,6.7443,6.756,6.7573,6.7659,6.7703,6.7689,6.778,6.7821,6.7904,6.7934,6.7904,6.8057,6.8095,6.822,6.8256,6.8287,6.8311,6.8272,6.8429,6.8444,6.8457,6.8506,6.8525,6.8296,6.8295,6.8295,6.8294,0,6.7621,6.7702,6.7768,6.7851,6.7903,6.7991,6.8016,6.8066,6.8066,6.8089,6.8194,6.824,6.8317,6.8347,6.8347,6.8472,6.8454,6.8427,6.8372,6.8481,6.8527,6.8546,6.8302,6.83,6.8299,6.8298,0,0,6.7779,6.7869,6.7893,6.793,6.8001,6.8063,6.815,6.8227,6.827,6.8327,6.8399,6.8502,6.8478,6.852,6.8525,6.8582,6.8694,6.8548,6.8549,6.8573,6.8834,6.8854,6.8875,6.8684,6.8687,6.869,6.8829,0,6.7914,6.807,6.8084,6.8223,6.8297,6.8285,6.836,6.841,6.8434,6.8499,6.8523,6.8597,6.8559,6.8584,6.8641,6.8668,6.8746,6.8659,6.8749,6.8752,6.8734,6.89,6.8921,6.9049,6.8847,6.885,6.8852,0,6.8093,6.8158,6.8305,6.8365,6.8397,6.8465,6.8536,6.86,6.8656,6.8668,6.8717,6.8714,6.88,6.8744,6.8862,6.8803,6.884,6.8859,6.8864,6.8872,6.8808,6.8911,6.9091,6.911,6.8881,6.8879,6.8877,0,6.8193,6.8317,6.8421,6.8453,6.8527,6.8574,6.8607,6.866,6.8705,6.8767,6.8796,6.8866,6.8904,6.8958,6.8973,6.893,6.9091,6.9036,6.9103,6.9103,6.9137,6.9134,6.9324,6.9162,6.9162,6.9162,6.9161,0,6.8342,6.8432,6.8467,6.8531,6.8631,6.8645,6.8743,6.8772,6.882,6.8887,6.888,6.8943,6.8959,6.9025,6.9037,6.9133,6.9151,6.9162,6.9164,6.9163,6.9161,6.9187,6.9178,6.9167,6.9166,6.9165,6.9164,0,6.847,6.8497,6.861,6.8671,6.8688,6.8759,6.881,6.887,6.8893,6.8978,6.8999,6.9034,6.9111,6.9132,6.9223,6.9231,6.9344,6.9338,6.9326,6.9325,6.9391,6.9385,6.9603,6.9633,6.9452,6.9454,6.9456,0,6.8563,6.8633,6.8702,6.8748,6.8783,6.8857,6.8903,6.892,6.8969,6.9038,6.909,6.9166,6.9228,6.9351,6.9383,6.9453,6.9448,6.952,6.9458,6.9454,6.9448,6.9444,6.945,6.9531,6.9533,6.9534,6.9536,0,6.8725,6.8736,6.8805,6.8879,6.8936,6.8994,6.905,6.9088,6.9112,6.9166,6.9246,6.9295,6.9389,6.9464,6.9535,6.9566,6.9555,6.9555,6.9574,6.9573,6.9563,6.9569,6.9357,6.955,6.9548,6.9547,6.9547,6.9546,6.8839,6.89,6.8958,6.9035,6.9079,6.9132,6.9192,6.9223,6.929,6.937,6.9375,6.9462,6.9515,6.9609,6.9644,6.971,6.9688,6.9716,6.9723,6.9729,6.9735,6.9553,6.9723,6.9722,6.9722,6.9722,6.9722,0,6.9,6.9037,6.9108,6.9188,6.9248,6.9235,6.9296,6.9346,6.9424,6.9476,6.9537,6.9629,6.9702,6.974,6.9812,6.9858,6.9854,6.9876,6.9872,6.9879,6.975,6.9727,6.9878,6.9878,6.9878,6.9878,6.9877,6.9877,6.9091,6.9193,6.9211,6.9334,6.937,6.9457,6.9493,6.954,6.9582,6.9685,6.9747,6.9772,6.9818,6.9894,6.996,6.9969,6.9995,7.002,7.0026,6.9905,6.9889,6.9873,6.9851,7.0026,7.0026,7.0149,7.015,7.0151]}]]